Regional Weather Roundup
Issued by NWS

Home | Current Version | Previous Version | Graphics & Text | Print | Product List | Glossary On
Versions: 1 2 3 4 5 6 7 8 9 10 11 12 13 14 15 16 17 18 19 20 21 22 23 24 25 26 27 28 29 30 31 32 33 34 35 36 37 38 39 40 41 42 43 44 45 46 47 48 49 50
000
ASUS43 KBIS 130110
RWRND

NORTH DAKOTA REGIONAL WEATHER ROUNDUP
NATIONAL WEATHER SERVICE BISMARCK ND
700 PM CST TUE DEC 12 2017

NOTE: "FAIR" INDICATES FEW OR NO CLOUDS BELOW 12,000 FEET WITH NO
SIGNIFICANT WEATHER AND/OR OBSTRUCTIONS TO VISIBILITY.


NDZ001>003-009>011-017-130200-
NORTHWEST NORTH DAKOTA

CITY           SKY/WX    TMP DP  RH WIND       PRES   REMARKS
WILLISTON      CLOUDY    46  18  32 W14       29.68S
MINOT          CLOUDY    47  22  37 W18       29.56F
MINOT AFB      CLOUDY    43  23  44 W17       29.55F
$$

NDZ018>021-031>035-040>046-130200-
SOUTHWEST NORTH DAKOTA

CITY           SKY/WX    TMP DP  RH WIND       PRES   REMARKS
BISMARCK       CLOUDY    46  24  42 SW10      29.66F
DICKINSON      CLOUDY    46  19  34 W20       29.69F
GARRISON         N/A     41  24  51 W12       29.61F
HETTINGER ARPT CLOUDY    46  18  32 W21G30    29.77F
$$

NDZ004>008-012>016-024-026-027-054-130200-
NORTHEAST NORTH DAKOTA

CITY           SKY/WX    TMP DP  RH WIND       PRES   REMARKS
GRAND FORKS    CLOUDY    29  27  92 SE12      29.56F WCI  19
GRND FRKS AFB  CLOUDY    31  27  86 S6        29.55F
DEVILS LAKE    CLOUDY    39  28  64 W17       29.54F
$$

NDZ022-023-025-028>030-036>039-047>053-130200-
SOUTHEAST NORTH DAKOTA

CITY           SKY/WX    TMP DP  RH WIND       PRES   REMARKS
FARGO          CLOUDY    36  29  75 S10       29.62F
JAMESTOWN      CLOUDY    40  30  67 W14       29.61F
$$





USA.gov is the U.S. government's official web portal to all federal, state and local government web resources and services.